Home > Weather > Makkah > Past weeks

Flag for Saudi Arabia Weather for the Past 2 Weeks in Makkah, Saudi Arabia

Now
68 °F

Passing clouds.


Feels Like: 68 °F
Forecast: 65 / 92 °F
Wind: No wind

Location: Mecca Airport

Current Time: Feb 11, 2016 at 5:24:18 AM

Latest Report: Feb 11, 2016 at 4:00 AM


Visibility: N/A

Pressure: 30.01 "Hg

Humidity: 83%

Dew point: 63 °F

Location of MakkahLocation

Historic Weather in Makkah — Graph

°F

Makkah Temperature Yesterday

Maximum temperature yesterday: 82 °F (at 3:00 PM)
Minimum temperature yesterday: 68 °F (at 5:00 AM)
Average temperature yesterday: 74 °F

High & Low Weather Summary for the Past Weeks

 TemperatureHumidityPressure
High97 °F (Feb 4, 3:00 PM)94% (Feb 6, 5:00 AM)30.15 "Hg (Feb 6, 5:00 AM)
Low55 °F (Jan 29, 8:00 AM)39% (Feb 4, 12:00 PM)29.86 "Hg (Feb 6, 3:00 PM)
Average75 °F64%30.00 "Hg
* Reported Jan 27 3:00 AM — Feb 11 3:00 AM, Makkah, Weather by CustomWeather, © 2016

Note: Actual official high and low records may vary slightly from our data, if they occured in-between our weather recording intervals... More about our weather records

Advertising

Makkah Weather History for the Previous 24 Hours

 ConditionsComfort  
Time TempWeatherWind HumidityBarometerVisibility
3:00 AM
Thu, Feb 11
68 °FPassing clouds.No wind83%30.01 "HgN/A
2:00 AM68 °FPassing clouds.No wind83%30.01 "HgN/A
1:00 AM68 °FPassing clouds.No wind88%30.01 "HgN/A
12:00 AM70 °FPassing clouds.No wind88%30.01 "HgN/A
11:00 PM
Wed, Feb 10
70 °FPassing clouds.No wind94%30.01 "HgN/A
10:00 PM70 °FPassing clouds.2 mph83%30.01 "HgN/A
8:00 PM73 °FPassing clouds.2 mph83%30.01 "HgN/A
7:00 PM75 °FPassing clouds.2 mph83%29.98 "HgN/A
6:00 PM77 °FScattered clouds.2 mph69%29.95 "HgN/A
5:00 PM79 °FPartly sunny.5 mph70%29.95 "HgN/A
4:00 PM81 °FPartly sunny.No wind66%29.95 "HgN/A
3:00 PM82 °FScattered clouds.No wind62%29.95 "HgN/A
2:00 PM79 °FScattered clouds.5 mph70%29.95 "HgN/A
1:00 PM77 °FPartly sunny.No wind65%29.98 "HgN/A
12:00 PM77 °FPartly sunny.5 mph65%29.98 "HgN/A
11:00 AM77 °FPartly sunny.No wind69%29.98 "HgN/A
10:00 AM75 °FPartly sunny.No wind69%30.01 "HgN/A
9:00 AM72 °FScattered clouds.No wind78%29.98 "HgN/A
8:00 AM70 °FScattered clouds.No wind78%29.98 "HgN/A
7:00 AM68 °FScattered clouds.No wind83%29.95 "HgN/A
6:00 AM68 °FClear.No wind83%29.95 "Hg10 mi
5:00 AM68 °FClear.No wind83%29.92 "Hg10 mi
Weather by CustomWeather, © 2016

See weather overviewHow to use our weather pages